Regional Weather Roundup
Issued by NWS

Home | Current Version | Previous Version | Graphics & Text | Print | Product List | Glossary On
Versions: 1 2 3 4 5 6 7 8 9 10 11 12 13 14 15 16 17 18 19 20 21 22 23 24 25 26 27 28 29 30 31 32 33 34 35 36 37 38 39 40 41 42 43 44 45 46 47 48 49 50
000
ASUS43 KMKX 010321
RWRWI

WISCONSIN REGIONAL WEATHER ROUNDUP
NATIONAL WEATHER SERVICE MILWAUKEE/SULLIVAN WI
1000 PM CDT FRI JUL 31 2015

NOTE: "FAIR" INDICATES FEW OR NO CLOUDS BELOW 12,000 FEET WITH NO
SIGNIFICANT WEATHER AND/OR OBSTRUCTIONS TO VISIBILITY.

WIZ001-002-006>008-014>016-023>028-010400-
NORTHWEST WISCONSIN

CITY           SKY/WX    TMP DP  RH WIND       PRES   REMARKS
SUPERIOR ARPT  CLEAR     65  52  61 W8        29.93R
ASHLAND        CLEAR     58  57  97 SW6       29.92R
HAYWARD        CLEAR     61  52  72 CALM      29.96R
SIREN          CLEAR     63  54  72 CALM      29.97R
CUMBERLAND     CLEAR     61  52  72 W5        29.98R
RICE LAKE      CLEAR     62  56  82 CALM      29.99R
CHETEK         CLEAR     64  55  73 SW3       29.97R
LADYSMITH      CLEAR     66  54  65 W5        29.98R
EAU CLAIRE     CLEAR     65  53  65 SW3       29.97R
MENOMONIE      CLEAR     66  53  63 SW5       29.98R
NEW RICHMOND   PTCLDY    65  54  65 W6        29.99R
OSCEOLA        CLEAR     65  56  72 SW5       30.01R
$$

WIZ003>005-009-010-017-018-010400-
NORTH CENTRAL WISCONSIN

CITY           SKY/WX    TMP DP  RH WIND       PRES   REMARKS
MANITOWISH WTR PTCLDY    56  56 100 CALM      29.94S
ARBOR VITAE    PTCLDY    59  57  92 CALM      29.94S
WOODRUFF       PTCLDY    59  57  92 CALM      29.94S
RHINELANDER    MOCLDY    57  55  93 W5        29.96R
EAGLE RIVER    CLEAR     55  54  95 CALM      29.94R
LAND O LAKES   MOCLDY    59  54  83 W5        29.94S
PHILLIPS       PTCLDY    60  57  89 CALM      29.95R
TOMAHAWK       CLEAR     54  53  95 CALM      29.96R FOG
MEDFORD        CLEAR     64  53  68 W3        29.97R
MERRILL        NOT AVBL
$$

WIZ029-030-035-036-043>047-010400-
CENTRAL WISCONSIN

CITY           SKY/WX    TMP DP  RH WIND       PRES   REMARKS
WAUSAU         CLEAR     64  55  72 SW5       29.95R
MOSINEE        CLEAR     64  55  72 CALM      29.97R
MARSHFIELD     CLEAR     65  51  60 W6        29.97R
STEVENS POINT  CLEAR     61  53  73 CALM      29.97R
WAUPACA        MOCLDY    69  55  60 CALM      29.96R
WAUTOMA        CLEAR     65  52  62 W5        29.97R
WISC RAPIDS    CLEAR     66  51  58 W6        29.98R
CAMP DOUGLAS   CLEAR     57  55  94 NW6       29.98R
$$

WIZ011>013-019>022-031-037>040-048>050-010400-
NORTHEAST WISCONSIN

CITY           SKY/WX    TMP DP  RH WIND       PRES   REMARKS
ANTIGO         PTCLDY    56  54  93 CALM      29.96R
SHAWANO        MOCLDY    66  56  71 W6        29.94S
OCONTO         MOCLDY    65  55  68 W5        29.91R
STURGEON BAY   PTCLDY    68  52  56 W7        29.93R
GREEN BAY      PTCLDY    65  55  70 W8        29.93R
MANITOWOC      CLOUDY    72  50  45 MISG      29.93R
APPLETON       MOCLDY    66  54  63 VRB5      29.96R
CLINTONVILLE   CLOUDY    66  54  63 W5        29.94S
OSHKOSH        MOCLDY    71  53  52 NW6       29.95R
$$

WIZ032>034-041-042-053>061-010400-
SOUTHWEST WISCONSIN

CITY           SKY/WX    TMP DP  RH WIND       PRES   REMARKS
LA CROSSE      CLEAR     69  57  65 SE3       29.99R
SPARTA         CLEAR     58  51  76 CALM      30.00R
VIROQUA        CLEAR     65  52  62 W6        30.02R
BOSCOBEL       CLEAR     64  58  80 W3        30.00R
PRAIRIE DU CHI CLEAR     66  56  68 CALM      30.01R
PLATTEVILLE    CLEAR     67  55  64 W6        30.01S
$$

WIZ056-057-062-063-064-067-068-010400-
SOUTH CENTRAL WISCONSIN

CITY           SKY/WX    TMP DP  RH WIND       PRES   REMARKS
REEDSBURG      CLEAR     68  52  57 CALM      29.99R
BARABOO/DELLS  CLEAR     66  48  53 CALM      29.99R
LONE ROCK      CLEAR     63  56  78 CALM      30.00R
MINERAL POINT  CLEAR     66  54  63 W3        30.02R
MADISON        CLEAR     70  50  49 W3        29.98R
MIDDLETON      CLEAR     62  56  80 CALM      30.00R
WATERTOWN      CLEAR     66  53  62 W3        29.97R
MONROE         CLEAR     70  52  52 W9        30.00S
JANESVILLE     CLEAR     64  52  63 W3        29.98S
$$

WIZ051-052-058>065-066-070>072-010400-
SOUTHEAST WISCONSIN

CITY           SKY/WX    TMP DP  RH WIND       PRES   REMARKS
MILWAUKEE      PTCLDY    75  50  41 W8        29.95R
WAUKESHA       CLEAR     68  50  52 W8        29.98R
MILWAUKEE/TIMM CLEAR     70  48  46 W6        29.97R
RACINE         CLEAR     71  50  47 W5        29.97R
BURLINGTON     CLEAR     64  50  60 W7        29.98R
KENOSHA        CLEAR     64  52  64 W6        29.97R
FOND DU LAC    CLEAR     66  53  63 NW6       29.96R
SHEBOYGAN      CLOUDY    71  54  54 NW7       29.94R
WEST BEND      CLEAR     66  50  55 W3        29.96R
JUNEAU         CLEAR     66  53  61 CALM      29.98R
$$

LSZ147-162-010400-
LAKE SUPERIOR

STATION/POSITION TIME  TEMP    WIND        PRES    WAVE
                       AIR SEA DIR/SP/G            HT/PER
                 (UTC) (F)     (DEG/KT/KT) (MB)    (FT/S)
W MID LAKE BUOY  0250   59 53  260/ 14/ 16 1011.3R   1/ 3
DEVILS ISLAND    0300   64     210/  7/  9 1012.5R
PORT WING        0200   67     240/  4/  7 1012.5S
SAXON HARBOR     0200   63                 1012.2R
$$

LMZ867-665-643>646-010400-
LAKE MICHIGAN

STATION/POSITION TIME  TEMP    WIND        PRES    WAVE
                       AIR SEA DIR/SP/G            HT/PER
                 (UTC) (F)     (DEG/KT/KT) (MB)    (FT/S)
CHAMBERS ISLAND  0200   70     300/  3/  6 1011.9R
S GREEN BAY BUOY 0300   68 71  280/  8/ 10 1014.3
N MID LAKE BUOY  0250   69 68  310/  4/  4 1011.0R   1/ 3
NORTHPORT PIER   0200   72     300/  8/ 13 1011.5R
SISTER BAY       0244   72     320/ 14/ 16   N/A
ALGOMA LAKESHORE 0242          320/  4/  8   N/A
KEWAUNEE LAKESHO 0300   68     300/  4/  7 1012.6R
SHEBOYGAN LAKESH 0300   73     300/  9/ 10 1013.7R
PORT WASHINGTON  0200   75     280/  3/  6 1013.9R
ATWATER BUOY     0300   73 68  270/  8/ 10 1015.6R
MILWAUKEE LAKESH 0300   75     290/  7/ 10   N/A
KENOSHA   LAKESH 0300   74     280/  8/ 12 1013.9R
$$

TC  - TEMPERATURE IN CELSIUS
VSB - VISIBILITY IN STATUTE MILES
WCI - WIND CHILL INDEX
HX  - HEAT INDEX




USA.gov is the U.S. government's official web portal to all federal, state and local government web resources and services.